Location: Brâznic
(45.9167°N, 22.6500°E)
Time: 00:02:38
(UTC+00:00)

Daily predictions for brighter satellites

Satellite Brightness Start Highest point End
(mag) Time Altitude Azimuth Time Altitude Azimuth Time Altitude Azimuth
CENTAUR R/B 4.5 00:40:01 17° ESE 00:40:09 17° ESE 00:44:12 10° ENE
CZ-2D R/B 4.4 00:36:20 10° N 00:37:41 18° N 00:37:41 18° N
Cosmos 2082 Rocket 3.8 00:56:56 28° E 00:56:56 28° E 01:01:02 10° NE
ADEOS II 4.0 00:59:33 10° N 01:01:33 24° N 01:01:33 24° N
CZ-2C R/B 4.3 01:07:31 10° NE 01:11:29 24° E 01:11:47 24° E
COSMOS 2406 3.9 01:19:48 50° ENE 01:19:48 50° ENE 01:24:25 10° NNE
Cosmos 1605 Rocket 4.3 01:21:25 57° NNE 01:21:25 57° NNE 01:26:12 10° N
ATLAS CENTAUR R/B 3.1 01:32:08 36° NNE 01:32:08 36° NNE 01:35:02 10° NE
BREEZE-M R/B 4.2 01:30:39 65° NNW 01:30:57 65° N 01:41:32 10° E
Meteor 1-11 Rocket 4.0 01:29:05 10° N 01:35:04 70° ENE 01:35:54 61° SE
Cosmos 1980 Rocket 3.5 01:32:20 10° NNW 01:41:00 28° SE 01:43:33 10° SSE
Cosmos 44 Rocket 3.9 01:47:41 51° NE 01:47:41 51° NE 01:51:13 10° NE
Cosmos 2173 Rocket 4.5 01:48:39 22° SSE 01:52:31 56° E 01:58:26 10° NNE
Cosmos 2056 Rocket 4.2 01:55:00 43° NNW 01:55:00 43° NNW 01:58:41 10° NNE
CBERS-1 4.0 01:48:32 10° NNE 01:53:35 80° E 01:53:35 80° E
Cosmos 1420 Rocket 4.4 01:58:10 52° NNW 01:58:10 52° NNW 02:02:21 10° NNE
Cosmos 1515 Rocket 4.1 02:00:46 53° ESE 02:01:13 56° E 02:05:36 10° NNE
Cosmos 2278 4.0 01:56:20 10° NNW 02:01:59 65° ENE 02:07:35 10° SE
SL-16 R/B 3.7 01:57:07 10° NNW 02:02:20 35° NE 02:07:31 10° ESE
IRS-1D 4.2 01:58:34 10° N 02:02:35 44° NNW 02:02:35 44° NNW
Resurs 1-4 Rocket 4.4 02:02:45 10° NNW 02:03:14 11° NNW 02:03:14 11° NNW
ALOS 2.3 02:00:57 10° NNE 02:05:10 72° N 02:05:10 72° N
Cosmos 1461 3.4 02:06:07 53° E 02:06:07 53° E 02:09:45 10° NE
IDEFIX/ARIANE 42P 4.4 02:03:38 10° N 02:05:39 18° NNW 02:05:39 18° NNW
USA 305 4.3 02:09:29 29° N 02:09:29 29° N 02:12:45 10° NE
FENGYUN 3A 3.5 02:04:28 10° N 02:09:50 69° WNW 02:10:02 68° W
METEOR-M 4.4 02:06:57 10° NNE 02:12:18 65° ESE 02:15:39 23° S
Cosmos 1833 Rocket 3.6 02:13:00 33° NW 02:13:00 33° NW 02:17:38 10° NNE
Cosmos 1741 Rocket 4.1 02:11:52 10° NNW 02:17:07 73° ENE 02:22:18 10° SSE
RUBIN 8/PSLV 4.4 02:16:24 10° NNE 02:20:46 82° WNW 02:20:56 80° WSW
MINOTAUR IV R/B 4.4 02:24:23 10° NNW 02:28:53 85° WSW 02:33:21 10° SSE
CENTAUR R/B 2.4 02:27:14 41° SW 02:29:33 87° NW 02:36:41 10° NE
Meteor 1-27 Rocket 3.8 02:28:06 43° SW 02:29:52 61° WNW 02:35:44 10° N
YAOGAN 6 3.7 02:29:00 10° NNE 02:32:29 43° E 02:35:28 13° S
CZ-2C R/B 2.6 02:27:22 10° SSE 02:32:37 87° ENE 02:38:02 10° NNW
ARIANE 5 R/B 2.5 02:28:34 10° NNE 02:33:36 79° ESE 02:37:43 15° S
Cosmos 2100 Rocket 3.9 02:30:37 25° SSW 02:34:18 69° W 02:40:28 10° N
BREEZE-M DEB (TANK) 2.5 02:34:33 44° N 02:34:33 44° N 02:38:07 10° ENE
Lacrosse 4 Rocket 1.8 02:30:50 10° NNW 02:35:12 68° ENE 02:39:37 10° SE
Lacrosse 5 rocket 4.4 02:33:32 10° SE 02:35:26 12° ESE 02:37:20 10° E
Cosmos 2016 Rocket 4.1 02:29:49 10° S 02:36:11 78° E 02:42:35 10° N
Cosmos 1484 Rocket 3.2 02:32:40 10° NNE 02:36:38 62° E 02:39:40 16° S
CZ-2C R/B 1.9 02:35:12 10° N 02:37:41 68° S 02:41:39 10° S
Helios 1B rocket 2.3 02:34:18 10° N 02:38:22 69° WNW 02:39:01 57° SW
CZ-2C R/B 4.3 02:33:18 10° NNE 02:38:45 45° E 02:43:55 10° S
Cosmos 2333 Rocket 4.5 02:34:17 10° N 02:38:49 24° NE 02:43:20 10° E
Cosmos 1110 Rocket 4.0 02:36:17 21° SSW 02:39:46 81° ESE 02:44:58 10° NNE
Cosmos 2082 Rocket 2.5 02:38:50 40° W 02:40:06 47° WNW 02:45:33 10° NNE
ADEOS II 4.2 02:41:41 10° NNW 02:42:28 11° NW 02:42:28 11° NW
Meteor 1-29 4.2 02:41:03 10° NNE 02:44:11 39° E 02:47:18 10° S
Cosmos 1452 Rocket 3.5 02:43:49 34° SW 02:46:01 63° WNW 02:51:17 10° NNE
Cosmos 2360 Rocket 3.7 02:41:15 10° NNW 02:46:27 37° NE 02:51:37 10° ESE
Okean 1 3.3 02:47:37 44° SW 02:48:39 60° W 02:52:39 10° N
CZ-2C R/B 2.7 02:45:13 10° N 02:49:53 43° WNW 02:51:08 36° WSW
Envisat 3.3 02:45:04 10° NNE 02:50:10 68° ESE 02:55:12 10° S
Cosmos 968 Rocket 4.3 02:45:26 10° NNW 02:50:30 52° ENE 02:55:29 10° SE
Cosmos 1816 Rocket 4.4 02:44:22 10° N 02:50:35 82° W 02:56:42 10° S
Cosmos 1869 Rocket 3.7 02:46:49 10° N 02:51:15 76° E 02:55:37 10° SSE
USA 307 4.3 02:51:30 21° NW 02:53:04 27° N 02:56:36 10° NE
USA 276 3.2 02:54:29 29° S 02:55:14 34° SE 02:58:01 10° E
TIMED 4.4 02:53:31 26° SSW 02:55:54 74° WNW 03:00:17 10° NNE
Cosmos 2061 Rocket 3.9 02:50:00 10° S 02:56:12 89° WNW 03:02:26 10° N
DELTA 2 R/B (1) 4.3 02:56:59 27° WSW 02:59:09 38° SSW 03:04:18 10° SE
SL-24 R/B - RUBIN 2 3.5 02:57:58 31° SW 02:59:57 68° NW 03:04:19 10° NNE
Cosmos 1459 Rocket 4.2 02:55:35 15° SSW 03:00:46 49° WNW 03:06:57 10° N
USA 306 4.4 03:00:25 17° NW 03:02:30 26° N 03:05:59 10° ENE
COSMOS 2406 4.3 03:01:52 24° WNW 03:03:32 27° NW 03:08:20 10° N
NOSS 3-2 (A) 3.5 03:01:34 26° WSW 03:04:35 54° NW 03:10:57 10° NE
BREEZE-M DEB (TANK) 2.7 03:04:00 34° WSW 03:05:02 46° SSW 03:11:51 10° SE
NOSS 3-2 (C) 3.2 03:01:05 18° SW 03:05:18 88° NW 03:11:42 10° NE
H-2A R/B 3.1 03:02:44 10° NNE 03:06:23 60° E 03:10:00 10° S
Meteor 2-4 Rocket 3.8 03:02:35 10° S 03:08:20 85° E 03:13:56 10° NNE
Cosmos 1864 Rocket 4.5 03:02:31 10° SSW 03:08:42 65° WNW 03:15:01 10° N
Cosmos 482 Debris 4.3 03:07:25 29° WNW 03:09:11 69° SSW 03:14:30 10° SE
PSLV R/B 4.3 03:05:18 10° NNE 03:09:33 55° E 03:13:43 10° S
ATLAS CENTAUR R/B 3.5 03:08:06 16° NW 03:09:39 18° NNW 03:13:01 10° NNE
IKONOS-2 4.5 03:05:36 10° S 03:09:45 59° W 03:13:58 10° NNW
Cosmos 1733 Rocket 4.4 03:06:02 10° N 03:10:15 42° ENE 03:14:25 10° SSE
DELTA 2 DEB (DPAF) 4.3 03:08:26 10° S 03:12:39 45° W 03:16:53 10° NNW
Cosmos 1933 Rocket 4.2 03:09:08 10° NNW 03:13:03 32° W 03:16:56 10° SSW
CZ-2D R/B 3.5 03:10:10 10° N 03:14:02 49° WNW 03:17:46 11° SW
OPS 6432 4.1 03:13:23 19° NW 03:15:25 68° SW 03:18:55 10° SSE
Cosmos 2322 Rocket 2.3 03:10:20 10° NNW 03:16:04 85° ENE 03:21:43 10° SSE
Cosmos 2233 Rocket 4.0 03:11:11 10° S 03:17:31 86° W 03:23:52 10° N
Cosmos 2237 4.2 03:11:57 10° NNW 03:17:41 88° WSW 03:23:23 10° SSE
X-37B 1.8 03:18:10 21° SW 03:18:26 22° SSW 03:20:45 10° SSE
SL-08 R/B 3.5 03:14:28 10° S 03:19:00 49° W 03:23:39 10° NNW
USA 238 DEB 3.6 03:14:48 11° SW 03:21:05 80° NW 03:27:58 10° NE
USA 238 3.6 03:14:52 11° SW 03:21:11 80° NW 03:28:04 10° NE
Cosmos 1975 2.8 03:17:20 10° NNW 03:21:15 56° W 03:25:07 10° S
Cosmos 1980 Rocket 3.7 03:23:06 15° WSW 03:23:06 15° WSW 03:24:45 10° SW
COSMOS 2455 3.2 03:18:02 10° NNW 03:24:03 69° NE 03:30:03 10° SE
BREEZE M DEB (TANK) 3.5 03:16:14 16° WSW 03:25:53 81° NNW 03:29:33 10° ENE
CZ-2C R/B 2.9 03:22:20 10° NNE 03:26:10 79° ESE 03:30:02 10° S
Tsikada Rocket 4.0 03:20:22 10° NNW 03:26:33 61° W 03:32:38 10° S
Cosmos 1242 Rocket 2.2 03:23:38 10° NNW 03:27:03 70° W 03:30:25 10° S
USA 308 4.4 03:25:30 11° NW 03:28:43 26° N 03:32:14 10° ENE
Cosmos 1725 Rocket 4.3 03:24:19 10° SSW 03:30:23 48° WNW 03:36:30 10° N
ATLAS 5 CENTAUR R/B 4.2 03:26:29 10° NNW 03:30:30 23° NE 03:35:09 10° E
Cosmos 1378 4.3 03:30:12 18° WSW 03:31:29 22° WNW 03:34:23 10° NNW
SKYMED 2 3.8 03:30:13 10° SSE 03:34:32 75° ENE 03:38:53 10° N
Cosmos 1805 3.5 03:30:54 10° N 03:34:47 73° E 03:38:39 10° SSE
CZ-4B R/B 4.1 03:30:31 10° NNE 03:35:46 66° ESE 03:41:00 10° S
GP-B 3.9 03:35:42 10° SW 03:39:34 29° W 03:43:27 10° NNW
ALOS 4.2 03:40:33 10° NW 03:42:16 12° WNW 03:43:37 11° WNW
Cosmos 1461 4.4 03:42:22 13° W 03:44:58 21° NW 03:48:14 10° NNE
Cosmos 1733 3.0 03:42:22 10° NNW 03:46:06 73° W 03:49:49 10° S
USA 234 4.0 03:39:45 10° ENE 03:46:10 55° SE 03:52:33 10° SSW
SL-16 R/B 2.6 03:41:13 10° NW 03:46:30 41° WSW 03:51:45 10° S
NOAA 11 4.2 03:43:05 10° N 03:48:33 70° WNW 03:53:57 10° SSW
USA 305 4.3 03:45:41 10° NW 03:49:16 28° N 03:52:51 10° ENE
Cosmos 1862 Rocket 3.6 03:47:22 10° S 03:51:51 90° NW 03:56:20 10° N
USA 290 2.1 03:49:17 10° NNW 03:52:30 78° WSW 03:55:42 10° SSE
Cosmos 1766 4.0 03:51:22 10° N 03:55:17 59° ENE 03:59:10 10° SSE
SJ 16-02 3.1 03:54:17 10° N 03:58:22 36° ENE 04:02:25 10° SE
CZ-3 R/B 3.9 03:42:07 10° WSW 04:00:04 31° SSW 04:06:41 10° SE
Cosmos 2228 Rocket 4.0 03:58:45 10° SW 04:02:37 28° WNW 04:06:29 10° NNW
SJ-12 4.0 03:58:41 10° N 04:02:42 58° WNW 04:06:43 10° SSW
Cosmos 2219 Rocket 2.7 04:01:49 10° NNW 04:07:28 66° ENE 04:13:01 10° SE
